Regional Weather Roundup
Issued by NWS Green Bay, WI

Home | Current Version | Previous Version | Graphics & Text | Print | Product List | Glossary Off
Versions: 1 2 3 4 5 6 7 8 9 10 11 12 13 14 15 16 17 18 19 20 21 22 23 24 25 26 27 28 29 30 31 32 33 34 35 36 37 38 39 40 41 42 43 44 45 46 47 48 49 50

000
ASUS43 KGRB 211010
RWRGRB

NORTH-CENTRAL AND NORTHEAST WISCONSIN REGIONAL WEATHER ROUNDUP
NATIONAL WEATHER SERVICE GREEN BAY WI
500 AM CDT TUE OCT 21 2014

WIZ005-009-010>012-018-019-211100-
NORTH CENTRAL WISCONSIN

CITY           SKY/WX    TMP DP  RH WIND       PRES   REMARKS
IRONWOOD       CLOUDY    39  37  93 CALM      30.16R
MANITOWISH WTR CLOUDY    38  35  89 NE7       30.16R
ARBOR VITAE    CLOUDY    40  37  88 NE6       30.15R
EAGLE RIVER    CLOUDY    38  36  92 N8        30.15R
LAND O LAKES   CLOUDY    38  36  92 NE3       30.16R
RHINELANDER    CLOUDY    39  34  82 NE5       30.15R
PHILLIPS       CLOUDY    39  34  82 NE8       30.15R
ANTIGO         CLOUDY    39  35  85 N8        30.13R
TOMAHAWK       CLOUDY    40  33  77 CALM      30.16R
MERRILL        CLOUDY    41  35  81 NE5       30.14R
$$

WIZ013-073-211100-
NORTHEAST WISCONSIN

CITY           SKY/WX    TMP DP  RH WIND       PRES   REMARKS
IRON MOUNTAIN  CLOUDY    40  34  79 N12       30.13R
MARINETTE      CLOUDY    43  36  75 N9        30.11R
OCONTO         CLOUDY    42  38  88 N5        30.11R
$$

WIZ017-030-035>037-045-211100-
CENTRAL WISCONSIN

CITY           SKY/WX    TMP DP  RH WIND       PRES   REMARKS
MEDFORD        CLOUDY    39  34  81 N14       30.14R
WAUSAU         CLOUDY    42  34  73 N7        30.13R
MOSINEE        CLOUDY    39  36  87 N8G18     30.14R
MARSHFIELD     CLEAR     39  35  86 NE7       30.13R
WISC RAPIDS    CLEAR     40  34  79 N9        30.15R
STEVENS POINT  CLOUDY    37  34  90 N3        30.14R
WAUPACA        CLOUDY    42  37  83 CALM      30.14R
SHAWANO        CLOUDY    45  38  75 N14       30.13R
CLINTONVILLE   CLOUDY    41  36  81 N3        30.12R
$$

WIZ038-039-048-051-211100-
FOX VALLEY

CITY           SKY/WX    TMP DP  RH WIND       PRES   REMARKS
NWS GREEN BAY  CLOUDY    44  38  79 N13       30.11R
APPLETON       CLOUDY    43  34  70 N15       30.12R
OSHKOSH        CLOUDY    44  38  79 N12       30.11R
FOND DU LAC    CLOUDY    45  37  73 N9        30.10R
$$

WIZ022-050-052-211100-
EAST CENTRAL WISCONSIN

CITY           SKY/WX    TMP DP  RH WIND       PRES   REMARKS
STURGEON BAY   CLOUDY    45  37  76 N17G24    30.10R
MANITOWOC      CLOUDY    45  40  82 N13       30.09R
SHEBOYGAN      CLOUDY    45  39  79 N7        30.08R
$$

LMZ563-521-522-541>543-211100-
LAKESHORE

STATION/POSITION TIME  TEMP    WIND        PRES    VSBY  WAVE
                       AIR SEA DIR/SP/G                  HT/PER
                 (UTC) (F)     (DEG/KT/KT) (MB)    (MI)  (FT/S)
SHEBOYGAN LKSHOR 1000   46 50  350/ 19/ 21 1019.2R
KEWAUNEE LKSHORE 1000   45     350/  9/ 12 1017.8R
NORTHPORT PIER   1000   46     360/ 19/ 23 1019.0R
N MID LAKE BUOY  1000   46 51   10/ 21/ 23 1018.1R         4/ 5
SISTER BAY LKSHO 0900           10/ 17/ 20   N/A
CHAMBERS ISLAND  1000   45     330/ 18/ 22 1019.3R
MENOMINEE LKSHOR 1000   44     340/ 16/ 19 1020.0R
$$


USA.gov is the U.S. government's official web portal to all federal, state and local government web resources and services.